Weather History for KELP - September, 2013

Change the Weather History Date:

Friday, September 27, 2013

  Actual Average Record
Temperature  
Mean Temperature 77 °F 72 °F  
Max Temperature 87 °F 84 °F 96 °F (1994)
Min Temperature 67 °F 59 °F 43 °F (1880)
Degree Days  
Heating Degree Days 0 0  
Month to date heating degree days 0 0  
Since 1 July heating degree days 0 0  
Cooling Degree Days 12 7  
Month to date cooling degree days 327 297  
Year to date cooling degree days 2605 2226  
Growing Degree Days 29 (Base 50)    
Moisture  
Dew Point 50 °F    
Average Humidity 39    
Maximum Humidity 57    
Minimum Humidity 20    
Precipitation  
Precipitation T in 0.04 in 1.62 in (1958)
Month to date precipitation 3.85 1.40  
Year to date precipitation 9.15 7.72  
Snow  
Snow 0.00 in - - ()
Month to date snowfall 0.0  
Since 1 July snowfall T  
Since 1 September snowfall 0.0  
Snow Depth 0.00 in    
Sea Level Pressure  
Sea Level Pressure 29.66 in    
Wind  
Wind Speed 12 mph (WSW)    
Max Wind Speed 22 mph    
Max Gust Speed 29 mph    
Visibility 10 miles    
Events Rain    
T = Trace of Precipitation, MM = Missing Value Source: NWS Daily Summary

Daily Weather History Graph

Daily Weather History Graph

Search for Another Location

Airport or City:

Trip Planner

Search our weather history database for the weather conditions in past years. The results will help you decide how hot, cold, wet, or windy it might be!

Date:

Astronomy

Sep. 27, 2013 Rise Set
Actual Time 6:57 AM MDT 6:55 PM MDT
Civil Twilight 6:32 AM MDT 7:19 PM MDT
Nautical Twilight 6:04 AM MDT 7:47 PM MDT
Astronomical Twilight 5:35 AM MDT 8:16 PM MDT
Moon 12:14 AM MDT (9/27) 2:16 PM MDT (9/27)
Length of Visible Light 12h 46m
Length of Day
11h 58m
Last Quarter, 44% of the Moon is Illuminated
Sep 27
Last Quarter
Oct 4
New
Oct 11
First Quarter
Oct 18
Full
Oct 26
Last Quarter

Hourly Weather History & Observations

Time (MDT) Temp. Heat Index Dew Point Humidity Pressure Visibility Wind Dir Wind Speed Gust Speed Precip Events Conditions
12:51 AM 78.1 °F - 50.0 °F 37% 29.65 in 10.0 mi WSW 16.1 mph 26.5 mph 0.00 in Rain Light Rain
1:51 AM 77.0 °F - 48.0 °F 36% 29.64 in 10.0 mi SSW 8.1 mph - 0.00 in   Mostly Cloudy
2:51 AM 75.0 °F - 53.1 °F 46% 29.64 in 10.0 mi South 8.1 mph - N/A   Mostly Cloudy
3:51 AM 75.9 °F - 51.1 °F 42% 29.63 in 10.0 mi SSW 6.9 mph - N/A   Mostly Cloudy
4:51 AM 75.0 °F - 52.0 °F 44% 29.64 in 10.0 mi WSW 12.7 mph - N/A   Mostly Cloudy
5:51 AM 73.9 °F - 54.0 °F 50% 29.65 in 10.0 mi WSW 11.5 mph - N/A   Mostly Cloudy
6:51 AM 73.0 °F - 54.0 °F 51% 29.67 in 10.0 mi WSW 9.2 mph - N/A   Mostly Cloudy
7:51 AM 72.0 °F - 55.0 °F 55% 29.68 in 10.0 mi SSW 8.1 mph - N/A   Scattered Clouds
8:51 AM 73.9 °F - 55.0 °F 52% 29.69 in 10.0 mi WSW 12.7 mph - N/A   Scattered Clouds
9:51 AM 77.0 °F - 55.9 °F 48% 29.69 in 10.0 mi SW 9.2 mph - N/A   Scattered Clouds
10:51 AM 81.0 °F 80.8 °F 55.9 °F 42% 29.68 in 10.0 mi SW 5.8 mph - N/A   Scattered Clouds
11:51 AM 82.0 °F 81.4 °F 55.0 °F 39% 29.66 in 10.0 mi South 12.7 mph 20.7 mph N/A   Scattered Clouds
12:51 PM 82.0 °F 81.2 °F 53.1 °F 37% 29.65 in 10.0 mi WSW 17.3 mph 23.0 mph N/A   Mostly Cloudy
1:51 PM 82.9 °F 81.9 °F 54.0 °F 37% 29.62 in 10.0 mi WSW 11.5 mph 20.7 mph N/A   Mostly Cloudy
2:51 PM 84.9 °F 83.2 °F 53.1 °F 33% 29.60 in 10.0 mi WSW 12.7 mph 18.4 mph N/A   Mostly Cloudy
3:51 PM 84.9 °F - 50.0 °F 30% 29.58 in 10.0 mi SW 18.4 mph 21.9 mph N/A   Scattered Clouds
4:51 PM 86.0 °F - 46.9 °F 26% 29.58 in 10.0 mi West 13.8 mph 23.0 mph N/A   Scattered Clouds
5:51 PM 86.0 °F - 42.1 °F 21% 29.59 in 10.0 mi West 16.1 mph - N/A   Partly Cloudy
6:51 PM 82.9 °F - 37.0 °F 19% 29.62 in 10.0 mi WNW 15.0 mph 25.3 mph N/A   Partly Cloudy
7:51 PM 79.0 °F - 43.0 °F 28% 29.66 in 10.0 mi WNW 17.3 mph 21.9 mph N/A   Partly Cloudy
8:51 PM 75.9 °F - 43.0 °F 31% 29.70 in 10.0 mi NW 15.0 mph - N/A   Partly Cloudy
9:51 PM 73.9 °F - 42.1 °F 32% 29.73 in 10.0 mi NNW 13.8 mph - N/A   Clear
10:51 PM 72.0 °F - 43.0 °F 35% 29.75 in 10.0 mi North 10.4 mph - N/A   Partly Cloudy
11:51 PM 71.1 °F - 42.1 °F 35% 29.76 in 10.0 mi North 9.2 mph - N/A   Partly Cloudy